User: anonymous   Login
Location: PACMO
(41.3967°N, 90.3760°W)
Time: 13:36:04
(UTC-05:00)
Language:

BREEZE-M DEB (TANK) - Orbit

View from above orbital plane
View from above orbital plane
View from above satellite
View from above satellite

Ground track
Ground track

The orbit data is extracted from the following two-line orbital elements,

1 31863U 07032B   16205.45248402  .00000104  00000-0  79862-4 0  9997
2 31863  45.9161 262.4181 4986348  77.4577 332.0840  5.51971769181372
Epoch (UTC): 23 July 2016 10:51:34
Eccentricity: 0.4986348
inclination: 45.9161°
perigee height: 402 km
apogee height: 13890 km
right ascension of ascending node: 262.4181°
argument of perigee: 77.4577°
revolutions per day: 5.51971769
mean anomaly at epoch: 332.0840°
orbit number at epoch: 18137

The dashed part of the orbit path shows where the satellite is in the earth's shadow,  

DLR